This is the latest recevied weather packets stored in our database for station/object N5DGC. If no packets are shown the sender has not sent any weather packets the latest 1 day(s).
| Time | Temp. | Humidity | Pressure | Rain* | Wind** | Luminosity | Snow |
|---|---|---|---|---|---|---|---|
| 1778071959 | 6.11° C | 66% | 1234.6 hPa | 0 mm | - | 30 W/m² | - |
| 1778070144 | 3.89° C | 75% | 1234.2 hPa | 0 mm | - | 6 W/m² | - |
| 1778069842 | 3.89° C | 77% | 1234.2 hPa | 0 mm | - | 4 W/m² | - |
| 1778069236 | 3.33° C | 77% | 1234.4 hPa | 0 mm | - | 2 W/m² | - |
| 1778067724 | 3.89° C | 75% | 1234.1 hPa | 0 mm | - | 0 W/m² | - |
| 1778065303 | 3.89° C | 76% | 1233.6 hPa | 0 mm | - | 0 W/m² | - |
| 1778064999 | 3.89° C | 76% | 1233.8 hPa | 0 mm | - | 0 W/m² | - |
| 1778064696 | 3.89° C | 76% | 1233.4 hPa | 0 mm | - | 0 W/m² | - |
| 1778063789 | 3.89° C | 76% | 1233.4 hPa | 0 mm | - | 0 W/m² | - |
| 1778063486 | 3.89° C | 76% | 1233.5 hPa | 0 mm | - | 0 W/m² | - |
| 1778063184 | 3.89° C | 76% | 1233.5 hPa | 0 mm | - | 0 W/m² | - |
| 1778062881 | 4.44° C | 75% | 1233.2 hPa | 0 mm | - | 0 W/m² | - |
| 1778062274 | 4.44° C | 75% | 1233.3 hPa | 0 mm | - | 0 W/m² | - |
| 1778061973 | 4.44° C | 75% | 1233.3 hPa | 0 mm | - | 0 W/m² | - |
| 1778060763 | 4.44° C | 74% | 1233.3 hPa | 0 mm | - | 0 W/m² | - |
| 1778059554 | 3.89° C | 75% | 1233.1 hPa | 0 mm | - | 0 W/m² | - |
| 1778059250 | 4.44° C | 75% | 1233.1 hPa | 0 mm | - | 0 W/m² | - |
| 1778058039 | 5° C | 73% | 1232.9 hPa | 0 mm | - | 0 W/m² | - |
| 1778057736 | 5.56° C | 71% | 1232.9 hPa | 0 mm | - | 0 W/m² | - |
| 1778057130 | 5.56° C | 73% | 1233.1 hPa | 0 mm | - | 0 W/m² | - |
| 1778056523 | 5.56° C | 72% | 1233.1 hPa | 0 mm | - | 0 W/m² | - |
| 1778055917 | 5.56° C | 71% | 1233.4 hPa | 0 mm | - | 0 W/m² | - |
| 1778055311 | 6.11° C | 71% | 1233.3 hPa | 0 mm | - | 0 W/m² | - |
| 1778053797 | 6.11° C | 72% | 1233.3 hPa | 0 mm | - | 0 W/m² | - |
| 1778053494 | 6.11° C | 71% | 1233.3 hPa | 0 mm | - | 0 W/m² | - |
* Rain latest hour (hover to see other rain measurements)
** Current wind speed in m/s (hover to see current wind gust speed)